Regional Weather Roundup
Issued by NWS Cleveland, OH

Home | Current Version | Previous Version | Text Only | Print | Product List | Glossary On
Versions: 1 2 3 4 5 6 7 8 9 10 11 12 13 14 15 16 17 18 19 20 21 22 23 24 25 26 27 28 29 30 31 32 33 34 35 36 37 38 39 40 41 42 43 44 45 46 47 48 49 50
000
ASUS41 KCLE 311010
RWRCLE
OHIO REGIONAL WEATHER ROUNDUP
NATIONAL WEATHER SERVICE WILMINGTON, OH
600 AM EDT SUN AUG 31 2014

NOTE: "FAIR" INDICATES FEW OR NO CLOUDS BELOW 12,000 FEET WITH NO
SIGNIFICANT WEATHER AND/OR OBSTRUCTIONS TO VISIBILITY.

OHZ001>008-015>018-024>027-034-035-043-044-311100-
   NORTHWEST OHIO

CITY           SKY/WX    TMP DP  RH WIND       PRES   REMARKS
DEFIANCE       CLOUDY    72  67  84 SW8       29.95S
FINDLAY        CLOUDY    72  66  81 SW9       29.97S
TOLEDO EXPRESS CLOUDY    72  68  87 SW7       29.95S
TOLEDO METCALF CLOUDY    73  67  81 SW9       29.95S
LIMA           CLOUDY    72  66  81 SW8       29.99S
$$

OHZ009>014-019>023-028>033-038-089-311100-
   NORTHEAST OHIO

CITY           SKY/WX    TMP DP  RH WIND       PRES   REMARKS
CLE-HOPKINS    CLOUDY    72  67  84 S9        29.99S
CLE-LAKEFRONT  CLOUDY    74  66  76 S13G21    29.96R
CUY CO. ARPT   NOT AVBL
LORAIN-ELYRIA  CLOUDY    75  66  73 SW8       29.99S
ASHTABULA      CLOUDY    70  66  87 S8        29.99F
AKRON-CANTON   LGT RAIN  70  67  90 SW8       30.02F FOG
WOOSTER        LGT RAIN  70  67  90 SW10      30.02F
MANSFIELD      CLOUDY    70  68  93 SW10      30.02S
YOUNGSTOWN     RAIN      68  64  87 S6        30.04R FOG
$$

OHZ042-051>053-060>062-070>072-077>081-311100-
  SOUTHWEST OHIO

CITY           SKY/WX    TMP DP  RH WIND       PRES   REMARKS
CINC-COVINGTON LGT RAIN  72  70  93 S9        30.03R FOG
CINC-LUNKEN    LGT RAIN  71  70  96 S3        30.03R FOG
HAMILTON       CLOUDY    72  70  93 VRB3      30.02S
DAYTON         LGT RAIN  72  68  87 SW7       30.03R
WRIGHT-PAT AFB MOCLDY    71  70  95 SE5       30.02R
DAYTON GENERAL LGT RAIN  71  70  96 S8        30.02R FOG
WILMINGTON     LGT RAIN  69  68  96 S6        30.04R FOG
$$

OHZ036-037-039>041-045>050-054>059-063>069-073>076-082>088-311100-
  CENTRAL AND SOUTHEAST OHIO

CITY           SKY/WX    TMP DP  RH WIND       PRES   REMARKS
COLUMBUS       CLOUDY    73  69  87 SE5       30.02R FOG
OSU AIRPORT    CLOUDY    71  69  93 SW3       30.03R FOG
BOLTON FIELD   CLOUDY    69  69 100 S6        30.04R FOG
RICKENBACK AFB CLOUDY    70  66  87 S5        30.02S FOG
NEWARK         LGT RAIN  71  68  90 S5        30.03S FOG
MARION         CLOUDY    69  67  93 S5        30.01S FOG
LANCASTER      LGT RAIN  71  69  93 SE5       30.04S FOG
ZANESVILLE     LGT RAIN  70  68  93 CALM      30.04F FOG
NEW PHILLY     LGT RAIN  69  69 100 SE6       30.05S
$$


USA.gov is the U.S. government's official web portal to all federal, state and local government web resources and services.